The Dalles, WA

3:03 PM PDT on October 20, 2019 (GMT -0700)
Columbia Gorge Regional-The Dalles

Weather History for KDLS - May, 2019

Change the Weather History Date:

Saturday, May 11, 2019

  Actual Average Record
Temperature  
Mean Temperature 68 °F -  
Max Temperature 90 °F 73 °F 97 °F (1949)
Min Temperature 46 °F 46 °F 31 °F (1970)
Cooling Degree Days 2    
Growing Degree Days 18 (Base 50)    
Moisture  
Dew Point 40 °F    
Average Humidity 40    
Maximum Humidity 74    
Minimum Humidity 14    
Precipitation  
Precipitation 0.00 in - - ()
Sea Level Pressure  
Sea Level Pressure 29.84 in    
Wind  
Wind Speed 5 mph (NW)    
Max Wind Speed 20 mph    
Max Gust Speed 30 mph    
Visibility 10 miles    
Events      
Averages and records for this station are not official NWS values.
T = Trace of Precipitation, MM = Missing Value Source: NWS Daily Summary

Daily Weather History Graph

Daily Weather History Graph

Search for Another Location

Airport or City:

Astronomy

May. 11, 2019 Rise Set
Actual Time 5:38 AM PDT 8:24 PM PDT
Civil Twilight 5:04 AM PDT 8:58 PM PDT
Nautical Twilight 4:21 AM PDT 9:41 PM PDT
Astronomical Twilight 3:31 AM PDT 10:32 PM PDT
Moon 11:53 AM PDT (5/11) 2:09 AM PDT (5/11)
Length of Visible Light 15h 53m
Length of Day
14h 45m
Waxing Crescent, 47% of the Moon is Illuminated
May 11
Waxing Crescent
May 11
First Quarter
May 18
Full
May 26
Last Quarter
Jun 3
New

Hourly Weather History & Observations

Time (PDT) Temp. Dew Point Humidity Pressure Visibility Wind Dir Wind Speed Gust Speed Precip Events Conditions
12:53 AM 55.9 °F 39.0 °F 53% 29.88 in 10.0 mi East 4.6 mph - N/A   Clear
1:53 AM 54.0 °F 39.0 °F 57% 29.88 in 10.0 mi Calm Calm - N/A   Clear
2:53 AM 50.0 °F 39.0 °F 66% 29.88 in 10.0 mi ESE 3.5 mph - N/A   Clear
3:53 AM 48.9 °F 37.9 °F 66% 29.89 in 10.0 mi SE 3.5 mph - N/A   Clear
4:53 AM 51.1 °F 39.0 °F 63% 29.90 in 10.0 mi Calm Calm - N/A   Clear
5:53 AM 46.9 °F 39.0 °F 74% 29.90 in 10.0 mi East 3.5 mph - N/A   Clear
6:53 AM 51.1 °F 39.9 °F 66% 29.91 in 10.0 mi Calm Calm - N/A   Clear
7:53 AM 55.9 °F 42.1 °F 60% 29.92 in 10.0 mi Calm Calm - N/A   Clear
8:53 AM 60.1 °F 42.1 °F 51% 29.92 in 10.0 mi Calm Calm - N/A   Clear
9:53 AM 64.9 °F 41.0 °F 42% 29.91 in 10.0 mi Calm Calm - N/A   Clear
10:53 AM 72.0 °F 43.0 °F 35% 29.89 in 10.0 mi Calm Calm - N/A   Clear
11:53 AM 75.9 °F 44.1 °F 32% 29.88 in 10.0 mi Variable 4.6 mph - N/A   Clear
12:53 PM 82.0 °F 37.9 °F 21% 29.85 in 10.0 mi Calm Calm - N/A   Clear
1:53 PM 86.0 °F 41.0 °F 20% 29.82 in 10.0 mi NNW 5.8 mph - N/A   Clear
2:53 PM 89.1 °F 41.0 °F 19% 29.80 in 10.0 mi NNW 8.1 mph - N/A   Clear
3:53 PM 89.1 °F 36.0 °F 15% 29.78 in 10.0 mi WNW 15.0 mph - N/A   Clear
4:53 PM 87.1 °F 36.0 °F 16% 29.77 in 10.0 mi NW 16.1 mph - N/A   Clear
5:53 PM 86.0 °F 32.0 °F 14% 29.75 in 10.0 mi NW 19.6 mph 29.9 mph N/A   Clear
6:53 PM 82.9 °F 36.0 °F 19% 29.75 in 10.0 mi NW 17.3 mph 24.2 mph N/A   Clear
7:53 PM 80.1 °F 37.9 °F 22% 29.76 in 10.0 mi NW 16.1 mph 23.0 mph N/A   Clear
8:53 PM 77.0 °F 39.9 °F 26% 29.77 in 10.0 mi WNW 12.7 mph - N/A   Clear
9:53 PM 75.9 °F 44.1 °F 32% 29.79 in 10.0 mi West 12.7 mph - N/A   Clear
10:53 PM 71.1 °F 46.9 °F 42% 29.80 in 10.0 mi NW 9.2 mph - N/A   Clear
11:53 PM 71.1 °F 46.0 °F 41% 29.81 in 10.0 mi West 12.7 mph - N/A   Clear